Wind_Speed
104 110 114 115 116 114 114 112 108 104 101 100 98 98 96 94 91 87 83 84 88 89 83 78 77 78 81 84 87 89 89 91 89 86 84 77 71 72 70 66 67 67 62 58 56 53 51 50 51 53 51 48 46 46 45 43 42 42 41 41 40 39 39 38 36 34 32 33 34 34 33 33 34 35 34 33 34 36 37 36 35 34 34 35 36 38
96 101 104 108 113 115 116 115 111 108 107 106 104 102 98 95 92 87 85 86 89 88 82 78 79 80 80 83 85 87 89 93 93 90 85 75 69 72 71 66 67 67 62 58 56 54 52 50 50 51 51 48 47 46 44 43 42 42 42 41 40 39 39 38 36 33 33 34 35 34 34 34 34 34 34 36 37 38 38 37 37 37 37 39 40 42
89 91 93 98 105 112 116 118 116 113 112 110 108 104 101 97 93 90 89 89 89 89 82 79 81 81 80 81 82 84 88 93 96 92 83 75 71 71 70 66 67 67 61 57 56 54 53 53 52 51 49 47 48 47 44 43 43 43 43 42 40 40 39 37 35 34 35 36 35 35 35 35 35 36 37 38 40 41 41 40 40 41 41 42 43 41
83 83 86 90 96 103 111 117 119 118 117 114 111 108 105 100 95 93 92 89 88 88 84 81 81 80 81 82 82 82 85 91 95 91 81 76 73 71 71 68 68 68 61 57 57 55 54 55 54 52 49 47 46 45 44 44 43 43 43 42 41 40 39 37 36 36 37 38 37 36 36 36 38 39 40 42 43 43 42 42 43 44 44 44 42 40
76 77 82 87 92 97 102 109 115 119 119 117 113 110 106 101 96 94 91 90 89 89 89 86 81 80 82 83 80 77 82 89 91 88 82 78 76 74 74 70 69 68 60 57 57 55 55 55 55 54 51 49 46 43 43 44 44 43 43 42 42 41 39 38 37 38 39 39 38 38 37 39 41 42 42 43 43 43 44 45 47 47 46 46 45 44
70 73 79 85 89 93 97 100 107 114 117 117 115 112 107 102 98 96 94 94 93 92 91 88 81 77 79 82 78 74 80 88 87 83 81 80 79 78 76 71 70 68 58 55 56 56 57 57 55 55 53 52 50 46 44 44 43 43 43 43 42 41 41 40 40 39 39 39 38 38 39 41 43 43 44 45 46 47 48 47 45 43 43 43 44 45
66 70 77 83 87 90 93 95 99 105 111 115 114 111 108 104 100 98 96 95 94 91 89 87 80 77 78 81 79 76 80 87 83 77 78 80 81 80 76 72 71 66 57 55 56 57 58 58 56 55 53 52 51 49 48 46 44 44 44 43 42 42 43 42 41 40 41 42 40 39 41 42 42 42 42 44 47 48 46 44 42 39 39 39 40 40
60 65 73 80 84 86 87 89 93 97 103 109 111 111 109 105 102 99 97 96 95 92 90 91 85 80 79 80 80 78 79 85 81 72 73 77 80 80 76 72 71 65 59 58 58 55 54 56 56 56 54 52 51 50 50 48 47 48 46 44 44 44 44 42 41 42 43 43 43 42 42 43 42 40 38 40 42 43 42 42 43 42 40 39 38 37
55 62 71 78 83 83 83 84 87 93 97 100 106 110 109 105 103 101 99 98 97 95 94 95 88 82 79 77 79 79 79 82 77 67 68 74 77 79 75 73 72 66 61 62 62 59 54 52 52 53 53 53 52 50 48 48 50 50 47 46 46 46 44 43 43 44 44 44 43 42 42 43 43 39 37 37 35 34 34 34 36 37 38 37 37 36
55 62 70 78 82 82 82 82 84 88 92 94 101 108 109 106 105 103 101 100 99 99 99 97 89 82 78 75 77 80 78 76 71 63 66 71 75 77 74 73 72 68 64 64 64 63 61 56 51 48 49 50 50 50 49 49 49 49 48 48 48 47 47 46 46 46 45 45 44 43 42 43 42 37 34 33 30 28 28 30 32 35 36 37 37 36
55 60 67 74 77 79 80 80 81 84 88 91 98 107 109 108 106 105 104 104 104 105 103 97 88 80 76 76 78 78 73 69 67 64 66 69 72 74 72 73 72 68 66 66 65 63 61 60 58 53 49 48 47 48 50 50 50 49 49 49 49 49 49 48 47 45 44 43 43 44 43 42 42 38 34 33 33 32 31 33 36 38 40 40 40 40
55 59 63 68 73 77 77 76 77 81 85 89 95 104 109 108 108 109 109 109 109 109 103 93 84 77 75 77 76 72 68 67 68 67 65 66 70 71 69 71 72 68 67 67 65 64 59 58 60 59 55 52 49 49 51 52 52 51 51 50 50 50 49 48 46 45 45 44 43 43 44 44 43 42 39 37 37 38 38 40 42 43 42 42 42 42
51 54 58 64 71 75 76 74 75 77 82 87 92 99 106 110 112 112 110 110 109 106 97 86 80 77 74 75 72 69 69 68 68 67 64 65 68 68 66 68 69 68 68 67 64 63 60 58 58 59 57 55 54 54 55 56 55 54 53 52 51 51 49 48 48 48 47 46 44 44 45 46 45 45 44 42 42 43 45 45 45 43 42 42 42 42
46 49 55 62 68 71 72 71 71 73 78 83 88 95 103 109 112 110 109 110 108 101 90 81 79 77 73 72 72 70 68 67 67 68 65 63 65 65 64 65 67 68 69 67 64 62 62 62 61 59 56 54 54 55 56 58 56 54 53 52 50 49 47 47 47 47 47 46 44 44 46 47 47 47 47 46 46 46 46 45 44 43 43 44 45 46
42 44 51 58 63 65 66 66 66 70 76 81 86 93 101 108 111 110 109 109 103 93 85 82 80 75 68 68 70 67 66 67 68 68 64 62 63 63 61 61 64 66 67 65 62 62 65 66 64 61 57 54 53 54 55 56 54 52 51 50 48 46 46 46 46 46 46 45 45 45 46 46 47 49 49 48 48 48 47 46 45 44 45 46 48 49
40 42 49 57 61 63 65 66 67 72 78 83 87 92 99 106 110 110 108 104 95 87 86 85 79 72 67 69 70 68 70 72 68 66 63 60 61 61 57 57 60 63 64 62 60 62 66 66 64 61 58 55 53 54 55 53 51 50 49 48 47 47 47 46 46 45 46 46 45 46 47 46 47 49 50 49 49 50 49 49 48 47 46 46 48 49
38 42 49 55 57 59 64 67 69 73 77 81 85 89 93 100 107 108 104 98 93 91 92 86 77 71 71 72 72 71 73 70 63 63 63 59 59 58 54 55 56 57 59 60 60 62 65 65 62 59 57 55 54 55 56 54 50 49 49 49 49 48 47 46 46 47 47 46 46 47 47 46 47 48 49 49 50 50 50 49 49 47 46 46 46 46
35 39 44 49 52 55 61 64 66 70 74 78 81 83 87 95 103 105 102 98 96 95 91 82 74 73 74 72 69 69 72 66 58 59 63 60 57 56 55 54 53 52 55 58 59 62 63 62 60 56 54 54 54 55 55 52 49 49 51 51 50 49 48 48 48 48 47 47 47 47 47 46 47 47 47 48 48 48 47 47 47 46 46 47 46 46
31 35 39 44 49 55 59 62 63 67 71 75 77 80 85 93 99 102 102 100 98 94 88 80 76 76 74 70 66 67 70 64 57 59 62 58 54 54 55 54 52 50 53 55 55 57 60 59 57 55 54 54 54 55 54 50 49 51 52 51 50 50 50 49 49 48 47 47 46 46 46 46 46 46 45 46 45 45 44 44 44 44 46 46 45 44
29 33 37 42 47 53 55 56 59 63 68 74 78 82 86 91 96 99 100 100 97 92 86 81 79 75 71 68 66 67 68 62 58 60 59 54 53 54 53 52 50 49 50 52 52 52 53 55 54 53 51 50 53 55 55 51 51 53 52 51 51 50 50 49 48 47 46 45 44 44 45 44 44 44 43 43 43 43 42 42 42 43 43 43 43 44
27 31 35 40 44 46 46 48 52 58 66 73 78 81 84 89 95 99 100 98 95 91 84 81 79 73 70 69 67 65 67 62 56 58 57 51 51 53 51 49 47 46 48 52 52 50 50 50 49 49 49 48 50 52 51 50 51 52 50 50 50 49 49 47 46 45 44 43 43 43 43 43 42 42 43 43 43 43 43 43 43 44 43 43 44 45
27 30 33 36 39 41 44 48 52 59 67 72 74 76 79 84 91 98 101 98 95 90 85 82 78 72 71 71 65 63 66 60 54 57 58 54 51 52 50 47 45 46 48 49 48 48 49 49 48 48 48 49 51 50 48 48 49 48 47 47 47 46 46 45 43 43 42 42 42 42 42 42 42 42 42 42 42 42 43 44 45 45 44 45 46 46
27 30 32 35 39 43 48 52 55 61 68 71 73 74 78 83 89 95 98 97 95 91 85 83 78 72 71 69 65 64 65 58 54 57 60 57 53 51 49 47 46 47 49 48 45 44 46 47 47 47 46 47 48 46 44 45 44 43 43 44 44 44 43 42 41 41 41 41 42 42 42 41 42 42 41 42 42 43 44 44 44 44 44 46 47 47
26 29 32 35 41 46 50 53 56 62 65 68 71 75 77 83 87 90 93 93 92 88 85 83 78 72 70 69 66 65 63 58 57 58 59 57 51 46 45 47 48 48 47 46 43 43 43 43 43 43 44 44 42 40 39 40 40 40 41 42 42 41 40 40 41 41 40 41 41 41 41 41 42 42 41 41 41 42 43 43 44 44 46 48 48 48
23 27 32 35 40 46 51 54 57 61 63 66 70 74 77 81 85 88 90 90 88 84 82 78 73 71 71 70 68 65 61 59 58 58 59 58 52 47 46 47 46 45 45 43 41 42 43 43 42 42 42 41 39 37 37 37 38 39 40 40 40 40 39 40 40 40 40 40 40 40 40 41 42 43 42 42 42 43 44 45 46 47 49 50 49 48
21 25 29 33 35 38 42 46 52 56 60 65 69 73 77 80 84 87 88 88 85 82 78 74 71 71 71 69 67 64 61 60 59 59 60 58 53 50 50 48 45 42 42 41 41 42 44 43 42 42 41 39 37 36 36 37 38 39 39 39 39 40 39 39 40 40 40 40 40 40 41 42 43 44 44 44 44 45 46 47 48 50 50 50 49 49
20 24 27 29 32 35 38 42 48 52 57 62 67 72 77 82 85 87 86 85 82 79 75 74 73 72 71 69 67 63 61 61 61 60 61 58 54 52 50 47 44 43 41 40 40 41 42 41 41 40 39 38 37 36 37 38 39 39 39 39 40 40 39 39 40 40 40 41 41 41 41 42 43 44 45 45 46 46 47 48 49 50 50 49 49 48
21 24 27 30 34 39 44 47 51 54 57 61 66 70 75 82 86 87 85 82 80 76 74 75 74 72 71 70 67 65 64 63 62 60 58 55 52 51 49 45 43 42 40 39 40 41 40 39 40 39 37 37 37 37 37 38 39 40 40 39 39 39 39 39 40 39 40 41 41 41 41 42 43 44 45 46 46 47 48 48 49 49 49 49 48 47
22 25 28 31 35 39 44 48 51 55 59 63 67 70 73 79 84 85 84 82 79 77 77 76 73 71 71 70 68 66 64 63 61 59 57 53 49 46 45 44 43 42 40 40 40 39 39 39 40 38 37 37 37 37 37 37 39 40 40 39 39 39 40 40 40 39 40 41 41 40 41 42 43 45 45 45 46 46 47 48 48 49 48 48 47 47
23 27 30 32 36 40 43 47 51 56 61 64 70 75 78 82 84 85 84 82 79 79 79 77 74 72 71 70 68 66 63 61 59 57 56 54 47 43 43 42 41 41 41 41 41 40 40 40 39 37 36 37 36 36 36 38 40 41 40 40 40 40 40 40 39 39 40 41 41 41 42 43 44 45 45 45 45 46 46 47 48 48 48 47 47 46
23 28 31 34 38 42 45 49 53 58 62 66 71 77 82 85 86 85 83 81 79 79 78 76 73 71 70 69 68 65 62 61 59 56 54 51 45 43 42 41 40 42 42 43 43 42 42 41 38 36 36 37 38 38 38 39 41 41 41 40 40 41 40 39 39 40 41 41 42 42 43 44 45 45 45 45 46 46 47 47 48 48 48 47 47 46
26 29 31 34 37 40 43 47 51 56 61 66 72 77 81 85 86 85 83 81 79 79 77 74 71 70 69 68 68 66 63 61 58 55 53 50 45 42 41 41 43 44 43 43 43 43 44 43 38 37 38 38 37 38 39 40 41 41 41 41 41 40 40 39 39 40 41 42 42 43 44 44 44 45 45 46 47 47 47 48 48 48 47 46 46 45
27 31 32 33 35 38 41 45 49 55 62 67 72 77 80 83 84 83 82 80 79 78 75 72 71 71 70 69 67 65 62 60 57 53 51 49 46 43 41 41 44 45 44 45 45 45 45 44 40 39 39 38 37 38 39 40 40 41 41 41 40 40 39 39 40 42 42 42 43 44 44 44 44 45 46 46 47 47 47 48 47 47 46 45 44 43
26 30 31 32 35 39 42 46 51 56 62 66 71 77 80 81 81 80 79 79 80 79 77 76 75 72 70 69 66 63 59 57 54 51 48 45 42 42 43 43 45 46 46 47 48 47 46 44 43 43 42 41 42 42 41 40 41 41 41 41 40 40 40 40 41 42 42 43 43 44 44 44 44 45 45 46 46 47 47 47 47 46 45 44 43 43
24 29 31 32 34 38 42 47 51 55 60 65 70 75 78 79 79 79 78 78 77 76 75 75 73 70 68 67 65 61 58 54 51 50 48 42 36 36 43 47 46 46 45 46 47 47 46 48 48 46 44 43 43 43 43 42 42 42 41 41 41 41 41 41 42 42 42 42 43 44 44 44 44 44 44 45 45 46 46 46 46 45 45 44 44 43
22 26 29 31 33 36 40 44 48 53 58 65 70 74 77 78 78 78 76 74 71 69 68 68 66 64 63 63 61 58 55 52 50 49 49 45 39 36 42 46 46 45 45 45 46 46 47 51 52 49 45 43 43 43 44 43 42 42 42 42 42 42 42 42 42 42 42 43 43 43 43 43 43 43 43 43 44 44 45 45 45 45 44 44 44 43
18 22 25 29 32 34 37 41 46 52 59 65 70 73 75 75 75 74 72 71 70 68 67 66 64 63 61 60 59 56 53 50 48 48 50 51 50 46 44 44 44 45 47 47 45 46 47 50 51 49 46 45 44 45 45 44 43 43 43 42 42 42 42 42 42 42 43 43 43 42 42 42 42 42 42 42 43 43 44 44 44 44 44 44 44 44
16 19 22 26 29 32 36 40 46 52 59 65 69 72 73 74 73 71 71 72 72 70 68 66 64 63 62 60 58 56 54 51 47 47 49 52 54 53 49 45 43 46 49 49 47 47 48 49 49 48 47 46 46 46 46 45 44 43 42 42 42 42 42 42 43 43 43 42 42 41 42 42 42 42 42 43 43 43 44 44 44 44 44 44 44 45
15 18 20 23 27 31 36 41 47 52 58 64 68 70 72 73 73 71 72 73 73 71 69 66 63 62 61 59 56 54 53 51 48 46 47 50 52 52 51 49 46 46 49 51 51 51 50 49 48 46 46 47 48 48 46 44 43 42 42 42 42 42 42 43 43 42 42 41 42 42 42 43 43 43 43 44 44 44 45 45 45 45 45 45 46 46
15 18 20 22 26 30 35 41 47 53 58 63 67 69 70 71 72 72 72 73 72 70 68 65 63 62 59 56 55 53 51 51 49 47 47 49 49 49 50 52 51 50 49 50 52 52 51 50 49 47 47 48 48 47 45 43 42 42 43 43 43 43 43 43 42 41 41 42 42 43 43 43 43 43 44 44 45 45 45 45 46 46 46 47 47 47
15 18 22 24 27 32 36 42 48 53 58 62 65 67 69 70 70 70 69 69 68 66 63 61 60 57 55 54 54 53 51 51 50 48 47 49 49 47 47 50 52 53 52 50 51 51 50 49 50 50 49 48 47 46 44 43 43 43 43 43 43 43 43 42 42 42 42 42 43 43 43 44 44 44 44 45 45 46 46 46 47 47 48 48 47 47
15 18 22 25 29 34 39 45 50 52 56 60 63 64 66 66 66 66 66 65 64 62 61 60 56 53 53 54 54 53 53 53 52 49 48 49 49 47 46 47 49 50 51 51 50 49 49 48 49 50 49 48 47 45 44 44 44 43 43 43 43 43 43 42 43 43 43 43 43 43 44 44 44 44 45 45 45 46 47 47 48 48 49 49 49 49
18 19 21 25 30 35 40 45 50 51 53 57 59 60 61 62 62 62 62 62 61 61 60 58 56 54 55 55 54 54 55 53 51 50 50 50 49 47 47 47 47 49 51 52 50 48 48 48 49 49 48 48 47 46 46 45 44 43 43 43 43 44 44 44 44 44 43 43 44 44 44 44 45 45 45 46 46 46 47 48 49 49 50 50 50 50
19 18 20 26 32 38 42 46 49 50 51 53 55 56 57 57 57 58 59 58 58 58 56 55 55 55 55 54 53 53 54 53 50 50 50 51 51 50 49 47 47 49 52 53 51 49 49 48 49 49 49 49 48 47 46 45 44 43 44 45 45 45 45 45 45 45 44 45 44 44 44 45 45 45 46 46 46 47 48 49 50 50 50 50 51 51
20 21 23 29 36 43 46 47 48 49 50 51 52 53 51 49 49 52 55 55 54 54 53 53 54 54 54 53 53 53 52 51 50 50 49 49 49 50 51 50 49 49 50 50 51 51 50 48 48 48 48 48 47 46 45 45 44 45 46 46 47 47 47 47 46 46 46 46 45 45 45 46 46 46 46 47 47 48 49 50 51 51 51 51 52 52
20 24 29 34 40 46 49 48 47 48 49 50 52 51 49 46 45 47 51 52 51 51 51 51 52 53 53 52 51 51 50 50 49 48 48 48 48 48 50 52 52 51 50 50 50 50 50 50 49 48 48 47 46 45 45 46 46 47 47 48 49 48 48 48 48 48 48 47 47 47 47 47 47 47 47 48 48 49 50 51 51 51 51 52 52 53
20 26 33 39 44 49 51 50 48 49 51 52 53 53 52 50 48 45 45 47 48 49 49 49 48 50 52 52 51 49 49 49 49 48 48 48 46 45 45 49 53 53 52 51 51 51 51 51 50 49 49 48 47 47 47 48 49 50 50 51 52 51 51 50 50 50 50 49 49 50 50 49 49 49 49 49 49 50 50 51 51 52 52 52 53 53
22 28 36 43 48 52 53 52 51 51 53 55 56 56 55 54 52 49 46 44 45 47 47 46 47 47 48 50 51 49 47 46 46 47 47 44 39 37 40 46 51 53 54 55 55 55 54 54 54 53 52 51 50 50 50 51 51 51 51 51 51 50 50 50 50 51 51 52 52 52 52 51 51 51 51 50 51 51 51 52 52 52 53 53 53 54
26 33 40 46 51 54 55 55 54 54 54 56 58 59 58 54 53 53 50 46 45 46 46 45 45 45 45 46 48 49 47 45 43 44 44 40 36 36 39 44 51 56 58 59 59 59 59 59 59 58 56 55 54 54 54 54 53 52 52 51 51 50 51 51 52 52 53 54 54 54 53 53 53 53 53 52 52 53 53 53 53 54 54 55 55 56
28 35 44 50 54 57 57 58 58 57 56 57 57 58 58 55 52 53 54 52 49 49 49 49 45 42 42 43 43 45 46 44 42 43 43 40 39 41 42 44 49 56 61 62 62 63 64 63 63 61 60 58 58 57 57 57 56 55 55 55 55 55 56 56 56 56 56 56 56 56 56 56 55 55 55 54 54 54 54 55 55 56 56 57 57 58
29 35 43 50 55 58 59 59 59 58 58 58 57 57 58 57 53 52 54 56 55 52 51 51 48 44 41 40 38 40 43 41 39 39 40 41 42 44 44 45 49 56 62 64 64 64 65 64 63 62 61 60 58 58 57 57 57 58 58 58 59 59 59 59 59 59 58 58 58 58 58 57 56 56 56 56 56 55 55 56 57 57 58 58 58 59
Wind_Direction
236 235 234 234 234 233 234 233 232 231 231 231 230 230 229 229 230 230 229 229 231 232 230 228 228 228 229 228 228 228 229 232 233 233 233 233 234 236 235 236 239 239 237 238 240 241 241 243 244 246 248 249 249 250 253 254 254 255 256 257 258 258 259 261 263 264 265 265 265 266 267 268 268 268 267 266 266 268 269 270 272 273 272 272 274 276
235 234 233 233 233 232 233 233 232 230 230 230 230 229 229 228 228 229 228 228 232 233 229 227 228 227 227 229 229 228 230 232 233 232 232 232 233 235 235 233 237 239 236 237 239 240 239 241 245 247 248 249 250 251 252 253 253 255 256 256 256 256 257 259 261 262 262 262 263 265 266 266 267 268 268 268 269 270 270 271 272 272 273 276 279 279
235 233 233 232 232 231 231 231 231 230 229 229 229 229 228 228 227 227 228 227 230 233 229 225 227 227 227 228 229 229 229 231 233 233 231 230 232 234 234 232 235 238 236 236 238 239 239 240 245 248 249 250 250 250 251 251 252 253 255 254 254 254 256 258 259 260 260 260 262 263 264 265 265 266 267 268 268 270 272 272 273 275 276 279 280 279
233 232 232 231 231 230 229 229 229 229 229 229 228 228 227 227 226 226 227 228 229 232 231 226 225 227 227 227 228 229 230 231 234 234 230 229 231 233 233 232 234 237 236 235 237 238 240 241 243 247 248 250 250 249 249 249 250 251 252 252 252 254 256 258 258 258 258 259 261 262 263 264 265 267 269 269 271 272 272 274 276 277 278 278 278 276
231 229 230 230 229 229 228 227 227 227 228 228 228 228 227 226 225 226 226 227 228 229 231 228 223 224 227 227 227 229 232 233 233 234 231 229 230 232 233 233 234 236 235 236 237 238 240 241 243 246 246 247 248 248 248 248 248 249 250 251 252 254 256 257 256 257 259 261 263 263 264 266 269 272 272 273 273 272 273 277 278 277 277 276 276 274
228 225 226 228 228 227 226 225 225 225 226 227 227 226 227 226 225 224 224 226 227 227 230 230 225 223 227 229 227 227 233 235 233 233 232 230 231 232 233 233 234 235 233 234 237 238 240 241 243 245 246 245 246 247 249 248 247 248 250 250 252 254 255 255 256 258 262 263 264 265 266 268 271 274 275 274 274 274 276 277 279 277 275 275 276 276
226 222 223 226 228 227 225 224 223 223 223 224 225 225 225 224 224 224 224 225 227 227 230 232 227 223 225 229 227 224 230 236 233 230 232 231 231 232 232 232 233 234 231 232 235 236 238 239 240 242 243 244 245 247 248 248 248 248 248 250 252 253 254 255 257 259 261 263 265 266 269 272 275 279 280 278 274 274 274 273 273 274 275 278 280 280
225 222 222 225 227 227 225 223 222 222 222 221 222 223 222 222 222 223 223 224 226 226 227 230 227 223 223 226 228 224 227 235 234 229 231 232 232 233 232 232 233 232 229 230 233 234 236 238 238 239 240 242 244 246 248 248 249 249 248 250 252 252 254 256 258 260 262 264 267 269 270 273 276 278 281 281 276 273 272 270 269 271 276 281 284 285
224 220 219 221 225 226 225 223 221 221 221 219 219 221 220 220 220 221 222 223 225 225 226 228 226 223 222 224 228 226 226 232 234 229 231 233 234 234 232 232 233 231 229 230 232 233 234 236 238 239 240 241 243 245 247 248 249 249 249 250 251 253 256 259 260 262 264 266 268 269 269 270 272 274 277 278 277 276 275 274 274 276 281 284 286 286
223 219 217 219 222 223 223 222 220 220 220 218 217 218 219 218 218 219 220 221 223 224 225 226 225 223 223 223 227 228 226 231 234 231 231 234 234 234 232 232 232 231 229 230 231 232 233 235 237 239 239 241 243 245 246 247 249 249 250 250 252 254 257 259 262 264 266 266 267 267 267 268 269 270 272 272 272 274 278 280 283 284 285 286 285 285
222 219 217 219 221 223 223 220 218 217 218 216 215 216 216 216 216 217 219 219 221 223 223 224 224 222 222 224 226 229 227 230 233 231 231 234 235 235 233 232 232 230 229 230 231 232 234 236 238 239 239 241 243 245 245 246 248 249 249 251 253 255 257 260 263 264 265 265 264 263 263 265 267 265 265 267 268 269 276 283 288 288 286 284 283 284
221 219 216 217 219 222 224 221 217 215 215 215 214 214 214 214 215 216 217 218 220 222 222 221 222 221 222 224 226 228 228 228 230 231 230 233 235 235 232 232 232 230 229 230 231 232 234 237 238 237 239 241 240 242 244 246 247 249 251 253 254 256 258 261 262 261 262 262 261 260 259 261 263 262 260 263 265 268 274 280 285 286 285 283 282 284
222 219 216 215 216 219 222 221 218 214 213 213 213 213 212 213 214 215 216 218 220 221 221 220 221 221 221 224 227 227 227 227 228 230 230 231 235 235 232 232 232 230 228 229 230 231 233 235 237 238 239 240 238 240 244 246 247 250 252 254 256 257 259 259 259 259 259 260 260 260 260 260 261 260 261 264 266 268 273 277 280 282 281 280 281 283
223 218 216 216 217 219 220 219 216 214 213 213 212 212 212 212 213 215 215 218 219 220 220 218 220 221 220 223 226 226 227 227 228 229 229 231 234 235 233 231 231 230 228 228 228 229 232 234 237 238 237 237 239 242 244 246 248 250 253 255 256 258 258 257 257 258 258 259 260 260 260 261 262 263 265 268 269 272 275 277 279 279 279 279 280 281
223 217 215 218 219 218 220 219 215 211 211 212 211 211 211 211 212 214 215 217 218 218 218 218 219 220 219 223 227 227 227 227 227 228 228 229 233 234 233 232 232 231 230 229 228 229 232 235 236 236 234 236 239 241 243 245 248 250 253 254 255 256 255 256 257 258 259 260 260 260 259 261 264 267 268 269 271 273 274 276 277 277 278 279 280 281
220 214 212 216 216 214 215 216 212 209 208 209 210 210 210 210 211 213 214 216 217 217 218 218 217 218 217 221 224 225 226 225 224 227 228 228 233 235 233 234 233 232 231 230 229 230 232 235 236 235 235 238 240 240 242 246 249 251 252 253 254 254 255 256 258 259 260 260 260 261 260 261 264 266 268 269 270 271 272 273 275 277 278 278 280 281
218 213 211 214 216 213 212 212 210 208 207 207 209 209 209 209 210 212 213 214 215 216 217 216 214 215 216 218 220 223 226 224 222 226 228 227 230 234 232 232 234 232 231 231 230 231 233 234 236 237 238 240 240 242 246 249 250 251 252 253 253 255 256 258 259 259 260 261 261 262 263 264 265 265 266 268 270 271 271 272 274 276 278 278 279 281
218 215 212 213 214 212 212 212 209 206 205 206 208 208 209 209 210 210 211 212 214 215 217 215 213 215 217 218 220 224 228 226 220 224 229 227 228 232 231 230 232 231 229 229 229 231 233 234 237 238 239 241 242 246 249 249 250 252 252 253 254 256 257 258 258 259 260 262 263 264 265 266 267 266 267 268 269 270 271 271 273 275 277 278 279 280
214 213 211 211 210 210 211 211 207 204 203 204 206 206 207 208 209 209 209 210 212 214 214 213 213 214 216 217 219 224 228 225 220 223 228 228 228 230 231 229 229 229 228 228 228 230 232 235 238 239 240 243 245 248 249 249 250 251 252 253 254 255 256 257 258 260 261 263 264 266 267 267 267 267 267 267 267 268 269 271 273 274 275 276 277 280
208 208 208 207 208 210 210 209 206 202 201 202 203 204 205 206 208 208 208 209 211 212 212 212 213 214 215 216 217 222 226 223 220 223 226 228 229 229 230 230 228 228 229 228 228 229 230 234 237 237 238 242 245 246 247 248 249 250 251 252 253 254 256 257 258 260 262 264 265 265 265 265 265 266 265 265 265 267 269 271 272 273 275 276 278 280
202 203 204 204 206 208 207 207 206 201 200 202 202 202 202 203 205 206 208 209 210 211 211 213 214 212 213 216 216 221 226 221 219 223 223 224 227 228 228 229 227 226 228 229 229 228 229 232 234 234 236 240 243 245 245 245 247 248 249 251 252 254 256 258 259 260 261 261 262 261 261 262 262 262 262 264 265 268 270 272 273 274 275 278 280 281
196 197 200 202 203 202 200 202 203 200 200 201 201 200 201 201 202 204 205 207 209 210 210 212 213 211 212 215 215 219 225 221 217 222 222 220 224 226 226 225 223 224 227 228 228 228 229 231 232 232 235 239 243 245 245 245 247 249 250 252 253 255 256 257 257 258 258 258 258 257 258 259 259 260 262 263 265 269 271 273 275 276 276 279 282 282
192 192 193 196 198 196 196 198 199 199 200 200 198 198 199 200 201 203 204 205 207 208 208 211 211 209 211 214 214 217 222 219 216 221 222 220 223 226 225 222 221 223 225 226 225 226 227 229 231 232 234 238 242 244 245 246 248 249 251 252 253 253 254 254 255 255 255 256 255 256 256 258 259 261 263 264 266 268 270 272 274 275 279 283 284 283
191 189 188 192 194 192 192 194 196 197 198 198 196 195 196 199 199 201 203 204 206 207 208 209 209 207 210 213 213 216 219 218 216 220 221 220 219 221 222 222 222 222 224 224 224 224 226 228 230 231 233 236 240 242 243 246 247 248 248 249 250 251 251 252 253 254 254 255 255 256 257 258 260 262 263 265 267 269 270 272 273 276 281 285 284 283
190 188 186 189 193 192 191 191 193 194 194 195 196 193 193 197 197 198 201 204 205 207 208 209 208 207 208 211 212 214 216 217 217 219 221 220 216 217 219 221 221 222 223 224 223 223 225 227 228 230 232 236 239 241 243 245 247 247 247 247 248 249 249 251 252 253 254 255 256 257 257 258 260 262 263 265 267 269 270 272 274 278 282 284 283 283
185 186 186 186 190 193 193 190 190 192 191 192 194 192 190 194 195 196 199 202 203 205 206 207 208 208 210 211 212 213 214 216 217 218 220 220 217 218 220 221 221 222 223 223 222 223 224 225 227 228 231 235 239 242 244 245 246 246 245 246 247 248 249 251 252 253 254 255 256 257 258 259 261 263 265 266 268 269 269 272 276 279 282 282 283 283
178 179 180 180 182 186 189 189 188 191 192 190 192 192 189 190 193 194 197 201 202 202 204 206 206 207 210 211 212 212 214 215 216 217 218 218 217 218 220 221 221 222 222 221 222 223 224 224 225 226 229 233 237 241 243 244 245 245 245 246 248 249 250 251 252 253 254 256 257 258 260 261 263 265 266 268 269 270 271 273 277 280 281 282 283 283
171 172 173 174 179 181 184 186 185 187 190 189 191 193 190 189 191 193 195 198 200 201 203 206 206 206 208 211 211 211 213 215 216 216 217 216 216 217 219 220 221 220 220 220 221 223 223 223 224 225 228 232 236 240 242 244 245 246 247 248 248 250 251 251 252 254 255 257 259 261 262 264 266 267 268 269 270 271 273 276 278 280 281 282 282 282
165 166 169 173 179 182 183 184 183 183 186 187 189 191 190 189 191 193 194 196 198 199 202 205 206 207 209 211 211 211 213 215 216 216 216 215 215 216 218 219 220 219 218 217 218 220 221 222 224 225 227 230 235 239 242 244 246 247 247 248 248 250 251 252 254 256 257 259 261 263 265 266 267 268 269 271 272 273 275 277 279 280 281 281 281 281
163 164 169 173 178 182 184 183 182 183 185 186 186 187 188 188 190 193 195 195 196 199 203 204 204 206 209 211 212 212 214 216 216 215 216 216 216 217 219 219 219 219 218 217 217 218 221 223 223 223 226 231 236 240 242 243 245 246 247 248 249 250 252 253 255 257 259 261 263 264 266 267 269 270 271 273 274 276 277 278 279 280 280 280 280 280
164 166 170 175 178 182 185 184 184 183 184 185 186 187 187 187 189 193 195 196 197 200 203 204 204 206 208 210 212 212 213 216 216 214 215 214 214 217 220 220 220 219 219 219 220 220 223 225 225 226 230 236 240 242 242 243 245 247 248 249 250 252 253 255 256 258 260 262 264 265 266 268 270 272 274 275 276 277 278 279 279 279 280 280 280 280
164 166 172 178 181 184 186 185 185 184 184 185 186 187 188 188 188 192 195 196 198 201 202 203 205 207 208 210 212 212 213 215 215 214 214 212 211 213 218 221 221 220 219 219 220 221 223 225 228 231 235 240 243 243 243 243 246 248 250 251 252 253 255 257 258 259 261 262 264 265 267 268 271 273 275 276 277 278 278 279 279 279 279 280 280 281
166 166 172 179 182 184 185 185 185 186 185 185 185 186 188 190 189 191 194 196 198 202 203 203 205 208 209 210 212 212 213 215 215 214 213 212 210 211 214 219 221 220 220 220 221 222 223 225 230 235 238 241 244 245 245 246 247 249 250 252 253 254 256 257 258 259 261 263 264 266 268 270 272 274 275 277 278 278 278 278 278 279 279 280 280 281
169 167 171 180 184 185 185 185 187 187 186 185 185 185 188 191 191 192 195 198 200 201 202 203 205 207 208 210 211 212 213 214 214 213 212 210 211 215 219 220 221 220 220 222 224 225 226 228 231 235 238 242 246 247 248 247 246 248 250 251 253 255 256 258 259 261 262 264 266 268 270 272 273 275 276 277 277 278 278 278 278 278 279 279 280 281
174 172 172 181 187 187 188 187 187 186 185 184 185 186 188 191 193 193 195 200 203 204 205 206 207 208 209 211 211 212 213 213 212 212 211 205 206 221 227 225 223 222 221 222 225 226 227 229 232 236 239 242 246 247 246 246 246 248 250 251 253 256 257 258 260 262 264 266 268 270 271 273 274 275 276 276 277 277 277 278 278 278 279 280 281 282
181 181 179 183 188 190 190 189 186 184 184 184 185 186 188 190 194 195 197 200 204 207 209 210 211 212 213 214 213 213 214 214 212 211 209 200 197 212 225 225 223 222 220 222 225 226 227 230 233 235 238 241 245 247 246 247 248 249 250 252 254 256 257 259 261 263 265 267 269 270 272 273 274 274 275 276 276 277 277 278 279 279 280 281 282 283
188 192 190 188 189 190 189 188 186 184 183 184 185 186 188 191 194 197 198 200 203 206 209 211 212 214 215 215 215 215 215 215 214 213 210 204 200 205 216 221 225 227 226 226 227 228 229 230 232 234 238 243 246 247 247 247 248 250 252 253 255 257 258 260 262 264 266 267 269 270 272 273 273 274 275 276 277 277 278 278 279 280 280 281 282 283
192 199 200 196 192 189 186 185 186 184 183 183 185 186 188 191 194 197 200 203 204 205 207 210 211 213 215 215 214 215 215 215 215 215 213 210 208 209 212 215 221 228 229 227 228 230 232 233 234 237 241 244 246 246 247 248 249 251 254 255 256 258 259 261 263 265 266 268 269 270 271 272 273 275 276 277 278 278 278 279 280 280 280 281 282 283
194 198 201 199 195 189 185 184 184 184 184 183 184 186 189 191 194 197 200 204 205 206 207 209 210 213 215 215 214 215 216 215 216 215 214 213 214 215 213 212 216 224 228 228 230 233 235 236 237 240 242 244 245 246 247 249 251 253 254 256 257 259 261 263 264 265 267 268 269 270 271 273 275 276 277 278 278 278 279 280 281 281 281 282 283 284
193 195 196 197 193 185 182 183 183 183 184 184 184 187 190 193 195 198 201 204 206 207 208 209 211 212 214 214 214 215 216 216 216 216 215 214 215 216 215 215 217 222 226 228 231 234 236 237 239 241 243 244 246 247 249 251 252 253 255 256 259 260 262 263 265 266 268 269 270 272 274 275 276 276 277 278 279 280 281 282 282 282 282 283 284 286
192 196 194 194 189 180 178 182 183 183 184 185 185 188 191 195 197 200 203 206 208 209 210 212 214 215 215 216 216 215 216 217 217 216 216 216 216 217 218 219 222 225 228 230 232 234 236 237 239 241 244 246 247 249 250 251 252 254 256 258 260 261 262 264 265 267 268 270 272 273 274 275 276 277 278 278 279 280 281 281 282 282 283 284 285 286
188 195 193 189 184 179 178 181 182 183 184 186 187 190 193 196 199 202 205 207 209 209 211 213 215 215 216 218 217 216 217 219 218 216 216 216 217 218 220 223 226 228 230 231 232 234 235 237 239 242 244 246 248 249 250 251 252 254 257 258 260 261 263 264 266 268 270 271 272 273 274 275 276 277 278 278 279 280 281 281 282 283 284 285 286 287
186 192 191 185 181 179 178 180 181 182 184 186 189 192 194 197 200 203 207 209 210 211 212 213 214 215 217 218 217 218 219 219 219 218 218 218 218 218 222 226 228 230 232 234 235 236 237 238 240 243 244 246 248 249 250 252 254 255 257 259 260 261 263 265 267 269 271 272 273 273 274 275 276 277 277 278 279 280 281 281 282 283 284 285 286 287
187 191 187 182 178 176 177 179 180 182 184 186 189 193 196 199 202 206 208 211 212 213 214 215 216 218 219 219 219 220 221 221 221 221 222 222 222 222 225 228 230 233 235 237 239 241 241 242 243 244 246 247 249 250 252 254 255 255 257 259 260 262 264 266 268 269 271 272 273 274 274 275 276 277 277 278 279 280 281 281 282 283 284 286 286 287
185 185 180 178 176 175 175 177 180 182 184 187 190 194 195 199 206 211 212 212 213 215 216 217 218 220 222 222 221 222 222 223 223 224 224 225 226 227 229 230 232 235 237 239 241 243 243 244 246 247 248 250 251 252 254 255 256 257 258 260 262 263 265 267 268 269 271 272 273 274 274 275 276 277 278 279 280 280 281 281 282 283 284 285 286 287
185 180 177 177 177 176 174 175 179 184 186 188 191 192 191 194 204 214 215 214 214 216 217 219 221 223 224 225 225 225 225 224 225 226 227 228 228 229 231 232 234 237 238 240 242 244 244 245 247 248 249 251 253 254 255 257 259 260 261 262 263 264 265 266 267 268 270 271 272 273 274 274 275 276 278 279 279 280 280 281 282 283 284 285 286 288
184 179 177 177 178 177 175 177 181 185 188 191 192 191 189 192 199 207 211 211 213 216 217 219 223 226 227 227 226 227 228 227 227 227 229 231 233 237 241 242 241 241 241 242 244 245 246 247 248 249 250 252 254 255 257 259 260 261 262 263 263 263 264 265 266 267 269 270 272 272 273 274 275 276 277 278 279 279 280 281 282 284 285 286 287 288
183 181 178 178 178 178 178 181 184 187 191 194 194 193 193 196 200 204 206 206 209 213 215 217 221 227 229 228 226 226 227 228 229 230 232 233 236 243 251 256 255 251 248 248 248 250 251 251 252 253 254 255 256 257 258 259 260 261 262 262 262 263 264 265 265 267 268 269 271 272 273 274 274 275 276 277 278 279 281 282 283 284 286 287 288 289
184 182 179 179 180 180 181 185 188 190 194 197 197 196 198 200 202 205 207 206 207 210 212 215 219 225 229 228 226 225 226 227 229 231 232 232 230 231 239 250 256 255 253 253 253 253 254 254 255 255 256 256 256 257 257 258 259 260 261 262 262 263 264 265 265 266 268 269 270 271 272 273 274 275 276 277 278 280 282 283 284 285 287 288 289 289
183 182 181 182 183 184 185 188 191 193 196 199 199 200 202 204 205 206 206 207 207 208 211 213 216 222 227 227 227 228 228 229 232 235 236 234 231 229 232 240 250 256 257 256 255 254 254 254 255 256 256 257 258 258 258 259 260 261 262 263 264 265 265 266 266 267 267 268 269 270 271 272 273 275 276 277 279 280 282 284 285 286 287 288 289 289
182 184 185 186 187 188 189 191 194 196 198 199 200 202 204 207 209 210 210 210 209 209 210 214 216 220 223 225 227 229 228 227 229 232 231 232 233 234 236 242 248 253 255 255 255 255 255 256 256 256 257 258 259 260 261 261 262 262 263 264 265 265 266 266 267 267 268 269 270 270 271 272 274 275 276 277 279 281 282 284 285 286 286 287 288 288
Height
10435 10441 10449 10461 10474 10486 10495 10503 10517 10534 10543 10548 10552 10556 10563 10570 10578 10591 10602 10602 10598 10601 10618 10632 10641 10645 10646 10649 10651 10654 10657 10656 10663 10672 10678 10691 10701 10702 10709 10715 10715 10722 10732 10735 10740 10745 10747 10748 10747 10747 10752 10758 10761 10762 10764 10768 10770 10771 10772 10773 10774 10775 10775 10778 10780 10782 10784 10783 10782 10783 10784 10784 10784 10785 10786 10786 10786 10785 10786 10786 10787 10787 10786 10785 10785 10784
10417 10424 10437 10451 10462 10473 10482 10490 10504 10519 10524 10528 10534 10543 10554 10563 10573 10585 10593 10595 10592 10596 10614 10627 10629 10633 10636 10640 10644 10649 10650 10650 10655 10663 10675 10690 10695 10694 10702 10710 10711 10716 10727 10733 10736 10740 10743 10744 10742 10743 10749 10754 10756 10759 10761 10765 10767 10767 10768 10769 10770 10770 10772 10774 10776 10779 10779 10778 10778 10779 10780 10780 10780 10781 10781 10781 10781 10781 10781 10782 10783 10782 10781 10781 10781 10780
10404 10417 10430 10442 10450 10458 10467 10475 10488 10501 10506 10512 10522 10533 10543 10553 10566 10576 10580 10585 10586 10590 10606 10618 10619 10624 10631 10634 10637 10641 10642 10644 10646 10657 10676 10686 10686 10689 10696 10705 10708 10711 10723 10730 10732 10735 10738 10739 10738 10741 10746 10750 10752 10755 10758 10761 10763 10763 10764 10765 10765 10766 10768 10770 10773 10775 10774 10773 10774 10775 10776 10776 10776 10776 10777 10777 10776 10776 10776 10777 10778 10777 10777 10776 10776 10776
10396 10412 10423 10431 10437 10442 10450 10459 10471 10484 10490 10499 10511 10520 10530 10544 10557 10565 10572 10580 10584 10587 10597 10607 10611 10616 10622 10623 10627 10633 10636 10638 10641 10654 10674 10679 10679 10685 10690 10700 10704 10707 10720 10726 10727 10731 10733 10734 10735 10738 10742 10745 10748 10751 10754 10757 10758 10759 10759 10760 10761 10762 10765 10767 10770 10770 10768 10769 10770 10771 10772 10772 10772 10772 10772 10772 10772 10772 10772 10772 10772 10772 10771 10771 10770 10771
10389 10404 10411 10416 10421 10426 10434 10443 10455 10467 10476 10488 10501 10511 10524 10539 10552 10560 10569 10574 10577 10580 10584 10592 10601 10609 10612 10615 10625 10634 10633 10633 10639 10652 10667 10673 10675 10680 10687 10697 10700 10705 10718 10722 10722 10727 10727 10729 10731 10734 10738 10741 10743 10747 10749 10752 10754 10755 10755 10755 10757 10759 10761 10763 10764 10764 10763 10765 10767 10768 10769 10768 10767 10768 10768 10768 10768 10767 10767 10767 10767 10767 10766 10765 10765 10764
10381 10393 10398 10401 10406 10411 10419 10430 10441 10452 10464 10477 10490 10504 10519 10533 10544 10552 10559 10563 10565 10571 10575 10582 10596 10607 10610 10613 10624 10633 10627 10624 10636 10650 10660 10668 10671 10674 10683 10693 10695 10702 10716 10718 10717 10720 10721 10724 10727 10729 10733 10736 10739 10742 10744 10747 10749 10750 10751 10751 10754 10756 10756 10757 10759 10761 10761 10761 10763 10764 10764 10763 10763 10764 10764 10764 10763 10763 10763 10763 10763 10762 10761 10760 10759 10758
10372 10382 10387 10389 10393 10399 10408 10419 10430 10441 10452 10464 10480 10497 10511 10524 10536 10543 10550 10555 10558 10567 10573 10578 10592 10603 10605 10606 10615 10624 10621 10615 10630 10648 10655 10660 10664 10669 10679 10687 10690 10700 10711 10711 10709 10713 10715 10718 10722 10724 10727 10730 10734 10737 10739 10743 10746 10745 10745 10747 10750 10751 10751 10753 10756 10757 10757 10757 10758 10759 10759 10759 10759 10760 10759 10759 10757 10757 10758 10758 10758 10757 10756 10756 10755 10754
10366 10375 10380 10381 10385 10391 10400 10411 10423 10433 10441 10454 10472 10487 10500 10514 10527 10535 10543 10548 10551 10561 10566 10565 10578 10591 10594 10599 10605 10615 10617 10611 10624 10645 10651 10654 10659 10665 10675 10682 10686 10696 10704 10704 10704 10707 10710 10712 10715 10718 10721 10726 10729 10733 10736 10740 10739 10738 10741 10744 10745 10745 10746 10750 10753 10753 10752 10753 10755 10755 10755 10755 10756 10756 10755 10753 10752 10753 10753 10754 10754 10753 10753 10752 10751 10750
10359 10364 10368 10370 10374 10383 10394 10406 10417 10425 10432 10448 10466 10477 10490 10507 10517 10525 10534 10539 10544 10552 10552 10552 10568 10583 10588 10596 10602 10608 10612 10608 10622 10646 10650 10650 10655 10660 10671 10677 10681 10691 10698 10698 10699 10702 10705 10708 10711 10714 10717 10721 10725 10729 10733 10734 10733 10733 10738 10740 10740 10741 10744 10747 10748 10748 10749 10750 10751 10751 10750 10751 10752 10752 10751 10750 10749 10749 10749 10750 10750 10750 10749 10748 10747 10746
10347 10350 10354 10357 10363 10374 10385 10396 10407 10416 10427 10443 10458 10468 10482 10497 10506 10514 10522 10530 10535 10537 10538 10545 10562 10576 10586 10597 10598 10600 10609 10615 10629 10646 10646 10645 10649 10654 10665 10672 10675 10685 10691 10691 10693 10696 10700 10703 10707 10710 10713 10717 10722 10726 10728 10728 10727 10729 10733 10734 10736 10739 10741 10742 10743 10744 10746 10747 10747 10746 10746 10746 10747 10748 10748 10746 10746 10745 10746 10746 10746 10746 10745 10744 10744 10743
10335 10340 10346 10352 10361 10369 10376 10385 10397 10408 10421 10436 10447 10456 10470 10485 10495 10503 10510 10517 10519 10518 10525 10541 10558 10574 10587 10592 10591 10597 10614 10624 10629 10637 10639 10641 10643 10649 10660 10665 10669 10679 10684 10685 10688 10690 10693 10698 10702 10706 10710 10715 10719 10721 10722 10722 10722 10725 10728 10730 10732 10734 10736 10737 10739 10740 10741 10743 10742 10741 10741 10742 10742 10744 10745 10744 10743 10742 10742 10742 10742 10741 10740 10740 10740 10739
10327 10333 10342 10351 10359 10365 10371 10380 10391 10401 10413 10426 10435 10444 10459 10474 10483 10489 10495 10500 10502 10505 10520 10541 10558 10574 10583 10583 10589 10603 10616 10620 10621 10627 10635 10637 10638 10644 10655 10659 10664 10673 10677 10679 10683 10685 10689 10694 10697 10701 10706 10711 10715 10715 10715 10716 10718 10721 10724 10726 10727 10729 10732 10734 10734 10735 10737 10737 10737 10737 10738 10738 10738 10739 10740 10740 10739 10739 10738 10738 10738 10737 10736 10736 10735 10735
10324 10332 10340 10346 10352 10358 10365 10376 10387 10398 10407 10416 10426 10437 10450 10462 10468 10474 10484 10491 10497 10506 10525 10549 10562 10570 10578 10584 10593 10603 10607 10612 10616 10622 10630 10632 10633 10639 10649 10653 10658 10666 10671 10674 10679 10682 10686 10690 10693 10697 10702 10706 10709 10709 10709 10710 10714 10718 10720 10722 10723 10726 10728 10729 10729 10730 10731 10732 10733 10733 10733 10734 10735 10735 10735 10735 10735 10735 10735 10734 10734 10733 10732 10732 10731 10730
10322 10330 10336 10340 10346 10352 10360 10370 10382 10395 10405 10412 10421 10431 10441 10451 10458 10469 10482 10486 10493 10510 10533 10554 10559 10563 10577 10584 10588 10595 10602 10609 10613 10616 10624 10629 10630 10635 10643 10648 10652 10658 10664 10669 10676 10680 10682 10686 10689 10692 10696 10701 10704 10705 10704 10706 10710 10714 10716 10718 10719 10722 10723 10723 10723 10724 10725 10727 10729 10729 10729 10730 10731 10730 10730 10731 10731 10731 10731 10730 10730 10729 10728 10727 10726 10725
10319 10328 10334 10338 10344 10352 10359 10368 10380 10392 10400 10407 10416 10424 10434 10445 10455 10467 10476 10480 10496 10522 10542 10549 10552 10563 10581 10584 10586 10595 10600 10602 10605 10610 10619 10625 10626 10630 10638 10644 10647 10653 10658 10665 10674 10677 10676 10679 10682 10686 10691 10697 10700 10700 10699 10702 10707 10711 10712 10714 10715 10717 10717 10717 10719 10720 10721 10723 10724 10725 10725 10726 10726 10725 10725 10726 10726 10726 10727 10726 10726 10725 10725 10723 10722 10720
10316 10322 10327 10331 10336 10344 10352 10362 10373 10380 10388 10398 10408 10415 10426 10440 10452 10461 10472 10487 10512 10531 10534 10537 10549 10567 10579 10578 10581 10587 10586 10590 10600 10607 10615 10622 10623 10627 10635 10640 10643 10649 10655 10663 10671 10672 10670 10672 10677 10682 10688 10692 10694 10694 10694 10698 10703 10706 10708 10709 10710 10710 10712 10714 10715 10716 10717 10718 10720 10720 10721 10722 10722 10721 10720 10721 10721 10722 10722 10722 10722 10721 10721 10719 10718 10716
10312 10316 10320 10324 10331 10339 10346 10352 10361 10371 10382 10392 10400 10411 10425 10439 10449 10460 10477 10496 10511 10515 10515 10528 10550 10564 10566 10566 10573 10577 10576 10586 10602 10607 10611 10618 10620 10624 10632 10635 10638 10646 10652 10658 10665 10666 10665 10668 10673 10679 10684 10687 10689 10689 10690 10695 10700 10702 10703 10703 10704 10705 10708 10710 10711 10711 10712 10713 10715 10715 10716 10718 10717 10716 10717 10717 10717 10717 10717 10717 10717 10717 10716 10715 10714 10711
10310 10314 10318 10323 10331 10339 10343 10348 10357 10368 10380 10388 10399 10413 10428 10437 10444 10458 10477 10490 10497 10502 10513 10534 10551 10556 10557 10563 10573 10575 10575 10588 10603 10605 10605 10613 10618 10622 10627 10631 10635 10642 10647 10652 10657 10659 10661 10665 10670 10676 10680 10682 10684 10684 10686 10692 10697 10697 10696 10697 10700 10702 10704 10705 10706 10707 10708 10709 10710 10710 10711 10712 10712 10711 10712 10712 10712 10712 10712 10713 10713 10712 10711 10710 10709 10707
10309 10314 10319 10324 10330 10334 10337 10345 10355 10366 10376 10387 10400 10412 10422 10431 10441 10455 10469 10480 10489 10500 10517 10535 10545 10547 10554 10564 10572 10572 10574 10588 10600 10601 10601 10610 10617 10620 10623 10627 10633 10638 10642 10646 10652 10655 10658 10662 10667 10672 10676 10678 10680 10680 10683 10689 10691 10690 10690 10693 10696 10697 10698 10700 10701 10703 10703 10704 10705 10706 10706 10707 10706 10706 10707 10707 10707 10707 10708 10708 10708 10708 10707 10705 10705 10704
10308 10313 10317 10322 10327 10330 10336 10346 10356 10366 10375 10384 10392 10401 10413 10426 10440 10454 10467 10478 10489 10502 10519 10532 10537 10544 10555 10563 10568 10568 10572 10585 10595 10596 10600 10609 10613 10615 10619 10624 10630 10635 10639 10642 10647 10652 10655 10658 10663 10668 10672 10674 10675 10674 10678 10683 10684 10683 10686 10689 10691 10692 10693 10695 10697 10699 10699 10700 10701 10701 10701 10701 10702 10702 10702 10702 10702 10703 10703 10703 10703 10703 10703 10701 10700 10699
10308 10312 10316 10321 10326 10333 10342 10352 10362 10370 10375 10379 10385 10396 10409 10422 10436 10453 10467 10479 10489 10503 10519 10527 10532 10545 10555 10557 10564 10567 10570 10582 10592 10593 10599 10605 10608 10611 10616 10621 10627 10633 10635 10637 10642 10647 10651 10654 10658 10663 10667 10669 10668 10668 10673 10677 10677 10679 10682 10684 10685 10687 10689 10691 10693 10694 10695 10696 10697 10697 10697 10697 10698 10698 10698 10698 10698 10698 10698 10698 10698 10698 10698 10697 10696 10695
10308 10312 10317 10322 10328 10336 10344 10352 10360 10368 10373 10378 10389 10401 10413 10424 10435 10447 10460 10474 10487 10500 10515 10522 10531 10545 10550 10552 10563 10566 10567 10580 10590 10590 10593 10600 10603 10607 10612 10618 10624 10628 10629 10632 10638 10643 10646 10650 10653 10658 10662 10663 10663 10664 10668 10671 10672 10675 10678 10679 10681 10683 10685 10687 10689 10689 10690 10692 10693 10692 10693 10694 10694 10693 10693 10693 10694 10694 10693 10694 10694 10693 10693 10693 10692 10691
10308 10311 10316 10322 10328 10335 10342 10347 10356 10364 10370 10379 10391 10403 10414 10424 10432 10444 10458 10471 10482 10496 10508 10516 10527 10540 10545 10550 10560 10562 10565 10578 10585 10584 10587 10595 10599 10604 10609 10615 10620 10622 10624 10628 10635 10639 10642 10645 10649 10654 10657 10658 10659 10661 10664 10665 10668 10672 10674 10675 10677 10678 10680 10683 10684 10684 10686 10687 10687 10688 10689 10689 10689 10689 10689 10689 10689 10689 10689 10689 10689 10689 10688 10688 10687 10686
10310 10313 10317 10321 10327 10332 10338 10346 10354 10362 10370 10381 10390 10400 10412 10423 10434 10450 10465 10475 10485 10497 10505 10512 10523 10535 10540 10546 10553 10558 10564 10573 10577 10578 10583 10591 10597 10602 10606 10611 10615 10618 10621 10626 10632 10636 10638 10642 10647 10651 10653 10655 10656 10657 10658 10661 10664 10667 10669 10670 10672 10674 10676 10678 10679 10680 10682 10682 10682 10683 10684 10684 10684 10684 10684 10685 10685 10685 10685 10685 10684 10684 10684 10683 10682 10681
10314 10316 10319 10323 10328 10333 10337 10343 10351 10360 10371 10383 10392 10400 10411 10425 10440 10454 10466 10475 10486 10498 10506 10516 10527 10533 10535 10540 10547 10554 10561 10568 10572 10576 10580 10586 10594 10599 10603 10607 10611 10616 10620 10625 10630 10633 10635 10639 10643 10647 10650 10651 10651 10652 10654 10656 10659 10662 10664 10666 10668 10670 10672 10674 10675 10676 10677 10677 10678 10679 10679 10680 10680 10680 10680 10680 10681 10681 10681 10680 10680 10679 10679 10678 10678 10677
10317 10320 10324 10328 10334 10341 10347 10353 10359 10368 10377 10386 10394 10403 10413 10427 10442 10453 10462 10473 10483 10494 10506 10517 10525 10529 10532 10538 10545 10552 10559 10563 10568 10571 10575 10582 10591 10596 10599 10602 10609 10615 10618 10622 10626 10628 10631 10635 10640 10643 10645 10646 10648 10648 10650 10652 10655 10658 10660 10662 10664 10666 10668 10670 10671 10672 10672 10673 10673 10674 10675 10675 10675 10676 10676 10676 10676 10676 10676 10676 10675 10675 10674 10674 10673 10672
10320 10324 10328 10334 10340 10347 10354 10360 10368 10376 10384 10391 10399 10406 10414 10426 10440 10450 10461 10473 10484 10495 10505 10510 10515 10522 10529 10534 10542 10549 10554 10557 10561 10565 10570 10578 10586 10592 10595 10601 10608 10611 10614 10618 10622 10624 10627 10632 10636 10638 10641 10643 10644 10644 10646 10648 10651 10654 10656 10658 10660 10662 10664 10666 10666 10668 10668 10668 10669 10670 10671 10671 10671 10671 10671 10672 10672 10671 10671 10671 10670 10670 10670 10669 10669 10668
10324 10327 10331 10337 10342 10346 10350 10356 10364 10375 10385 10395 10404 10412 10418 10426 10437 10448 10460 10472 10484 10495 10501 10504 10511 10519 10524 10530 10538 10543 10547 10551 10555 10561 10569 10576 10583 10589 10594 10600 10605 10608 10611 10616 10618 10621 10625 10629 10631 10635 10637 10639 10640 10640 10642 10645 10647 10650 10653 10655 10657 10658 10661 10662 10663 10664 10664 10664 10665 10666 10667 10667 10667 10667 10667 10667 10667 10667 10667 10667 10666 10666 10665 10665 10664 10663
10327 10331 10335 10340 10345 10350 10354 10359 10366 10375 10385 10393 10403 10415 10425 10432 10441 10451 10459 10469 10482 10490 10494 10499 10509 10517 10520 10526 10533 10537 10543 10548 10553 10561 10568 10574 10582 10589 10593 10598 10601 10605 10609 10612 10615 10618 10621 10624 10628 10631 10633 10634 10635 10637 10640 10642 10644 10646 10649 10651 10653 10655 10657 10658 10659 10660 10660 10660 10661 10662 10663 10662 10662 10662 10662 10662 10662 10662 10662 10662 10661 10661 10660 10659 10658 10657
10330 10334 10338 10343 10348 10353 10359 10365 10371 10377 10385 10393 10402 10412 10423 10432 10441 10451 10459 10469 10479 10484 10488 10496 10505 10512 10517 10524 10530 10536 10542 10547 10553 10562 10567 10574 10583 10588 10591 10596 10599 10603 10606 10609 10611 10614 10617 10620 10624 10626 10629 10630 10632 10634 10637 10639 10640 10642 10645 10648 10650 10652 10653 10655 10656 10657 10656 10656 10657 10658 10658 10658 10657 10657 10657 10657 10657 10657 10657 10657 10656 10655 10655 10654 10653 10651
10334 10338 10342 10346 10350 10355 10360 10366 10372 10378 10385 10394 10402 10410 10419 10427 10438 10450 10459 10469 10476 10480 10486 10496 10503 10509 10516 10523 10528 10535 10540 10545 10552 10560 10566 10574 10583 10586 10590 10595 10598 10600 10603 10605 10608 10610 10613 10616 10620 10622 10624 10625 10628 10631 10634 10635 10636 10639 10641 10644 10646 10648 10650 10652 10653 10653 10653 10653 10653 10654 10654 10653 10653 10652 10652 10652 10652 10652 10652 10651 10650 10649 10649 10648 10647 10645
10338 10342 10346 10351 10355 10359 10364 10370 10377 10383 10389 10395 10403 10413 10422 10430 10438 10448 10457 10466 10474 10478 10485 10495 10503 10508 10514 10520 10525 10532 10538 10544 10551 10558 10565 10573 10580 10584 10588 10592 10594 10597 10600 10603 10605 10607 10609 10612 10616 10618 10619 10621 10625 10628 10630 10632 10634 10636 10638 10640 10642 10644 10646 10648 10649 10648 10649 10649 10649 10649 10649 10649 10648 10648 10647 10647 10647 10647 10646 10646 10645 10643 10643 10642 10641 10640
10342 10346 10350 10355 10359 10363 10369 10375 10381 10386 10391 10397 10405 10416 10426 10433 10440 10448 10457 10465 10470 10476 10485 10494 10500 10505 10511 10516 10522 10530 10537 10544 10551 10558 10565 10573 10579 10583 10586 10588 10591 10594 10598 10599 10601 10603 10606 10609 10612 10613 10615 10618 10621 10624 10627 10630 10632 10633 10634 10637 10639 10640 10642 10644 10644 10643 10644 10644 10644 10644 10644 10644 10644 10644 10643 10642 10642 10641 10641 10640 10639 10638 10637 10636 10635 10634
10348 10350 10354 10359 10362 10366 10371 10376 10381 10386 10393 10402 10410 10419 10428 10438 10446 10454 10461 10465 10467 10472 10481 10487 10493 10500 10508 10514 10521 10529 10536 10543 10551 10558 10565 10573 10580 10584 10585 10587 10589 10592 10595 10596 10597 10600 10604 10607 10608 10609 10611 10615 10618 10621 10625 10627 10628 10629 10631 10633 10635 10636 10638 10639 10639 10638 10639 10639 10639 10639 10640 10640 10640 10639 10639 10638 10637 10636 10635 10634 10634 10633 10632 10631 10630 10629
10353 10355 10357 10361 10365 10369 10373 10377 10383 10390 10399 10407 10414 10422 10431 10441 10449 10455 10460 10464 10469 10475 10481 10486 10493 10500 10505 10512 10521 10528 10535 10543 10551 10558 10565 10574 10581 10584 10585 10585 10588 10591 10593 10594 10595 10598 10601 10603 10603 10605 10608 10612 10615 10617 10620 10622 10624 10625 10627 10629 10631 10632 10633 10634 10634 10634 10634 10635 10635 10635 10635 10635 10635 10635 10634 10633 10632 10631 10630 10629 10629 10628 10627 10626 10625 10624
10357 10359 10361 10364 10368 10372 10377 10382 10388 10395 10402 10409 10417 10424 10433 10441 10447 10454 10461 10468 10476 10481 10486 10492 10499 10504 10509 10515 10523 10529 10536 10544 10550 10556 10564 10572 10578 10583 10584 10584 10587 10589 10589 10590 10591 10594 10597 10598 10599 10602 10605 10609 10611 10613 10615 10618 10620 10622 10623 10625 10627 10628 10629 10629 10629 10629 10630 10630 10630 10630 10630 10630 10630 10629 10628 10628 10627 10626 10625 10624 10623 10623 10622 10621 10620 10619
10362 10364 10367 10369 10372 10376 10381 10387 10393 10397 10403 10411 10419 10427 10435 10443 10451 10459 10465 10470 10474 10479 10485 10491 10498 10504 10509 10515 10522 10529 10536 10543 10548 10554 10561 10567 10573 10577 10580 10582 10585 10585 10585 10586 10589 10591 10592 10594 10596 10600 10603 10605 10607 10608 10610 10613 10615 10617 10619 10621 10622 10623 10624 10624 10624 10625 10625 10625 10625 10625 10624 10624 10624 10623 10623 10622 10621 10620 10620 10619 10618 10617 10617 10615 10614 10613
10365 10368 10371 10373 10376 10380 10384 10389 10395 10399 10405 10412 10420 10428 10437 10445 10452 10459 10464 10466 10469 10476 10482 10489 10497 10503 10508 10513 10521 10528 10534 10540 10546 10551 10557 10563 10567 10571 10575 10578 10579 10579 10581 10583 10586 10587 10589 10591 10594 10597 10599 10601 10602 10603 10605 10608 10611 10613 10615 10616 10617 10617 10618 10619 10619 10619 10620 10620 10620 10620 10619 10618 10618 10617 10617 10616 10616 10615 10614 10614 10613 10612 10611 10610 10609 10608
10368 10371 10373 10376 10379 10383 10387 10392 10397 10403 10408 10414 10422 10430 10437 10443 10450 10455 10458 10460 10466 10473 10480 10488 10496 10502 10508 10515 10522 10527 10532 10538 10543 10547 10552 10557 10562 10567 10571 10573 10572 10573 10576 10579 10581 10583 10585 10588 10591 10593 10594 10595 10596 10598 10601 10605 10608 10609 10610 10611 10611 10612 10613 10613 10614 10614 10614 10614 10614 10614 10613 10613 10612 10612 10612 10611 10610 10609 10609 10608 10608 10607 10606 10605 10604 10603
10370 10373 10375 10378 10382 10386 10391 10395 10400 10405 10411 10417 10424 10432 10439 10444 10449 10452 10455 10459 10465 10474 10482 10489 10495 10500 10508 10515 10521 10526 10531 10535 10539 10543 10548 10552 10556 10561 10566 10568 10568 10569 10572 10575 10577 10579 10582 10585 10587 10587 10589 10591 10592 10595 10598 10602 10604 10605 10605 10606 10607 10607 10608 10608 10609 10609 10609 10608 10608 10608 10608 10607 10607 10607 10606 10605 10604 10604 10603 10603 10603 10601 10600 10600 10599 10598
10373 10375 10377 10380 10384 10388 10393 10398 10403 10408 10413 10420 10426 10433 10439 10444 10449 10454 10458 10463 10470 10480 10488 10493 10498 10505 10512 10516 10519 10524 10528 10531 10535 10540 10544 10547 10551 10556 10561 10564 10565 10567 10570 10572 10573 10575 10578 10580 10582 10583 10585 10587 10589 10592 10595 10598 10599 10600 10601 10601 10602 10602 10602 10603 10603 10603 10603 10603 10603 10602 10602 10602 10602 10602 10601 10600 10599 10599 10598 10598 10597 10596 10595 10595 10595 10594
10375 10378 10380 10383 10387 10391 10395 10400 10406 10411 10417 10423 10429 10435 10440 10446 10452 10458 10463 10467 10474 10482 10488 10493 10499 10507 10511 10512 10516 10521 10524 10527 10532 10537 10540 10543 10547 10552 10556 10559 10562 10564 10566 10567 10568 10571 10574 10576 10577 10579 10581 10583 10586 10589 10591 10593 10594 10596 10597 10597 10597 10598 10598 10598 10598 10598 10598 10598 10597 10597 10597 10596 10596 10596 10596 10595 10594 10594 10593 10593 10592 10591 10590 10590 10590 10589
10377 10380 10383 10387 10391 10395 10399 10404 10410 10416 10422 10428 10434 10439 10445 10451 10457 10461 10465 10470 10476 10482 10487 10492 10499 10503 10505 10508 10513 10517 10519 10524 10530 10534 10537 10540 10544 10548 10552 10555 10558 10561 10561 10562 10564 10567 10570 10572 10573 10575 10578 10580 10582 10585 10587 10589 10591 10592 10592 10592 10593 10593 10593 10593 10593 10593 10593 10592 10592 10592 10592 10591 10591 10591 10590 10590 10589 10589 10588 10587 10587 10586 10586 10585 10584 10583
10379 10383 10387 10391 10395 10399 10404 10409 10415 10420 10426 10433 10439 10444 10450 10455 10460 10463 10467 10472 10477 10482 10488 10494 10498 10500 10502 10506 10511 10515 10519 10524 10529 10532 10535 10538 10542 10546 10549 10552 10555 10556 10556 10559 10562 10564 10566 10568 10570 10572 10574 10576 10578 10581 10583 10585 10586 10587 10588 10587 10588 10588 10588 10588 10588 10588 10588 10587 10587 10587 10587 10586 10586 10585 10585 10584 10584 10583 10582 10581 10581 10581 10581 10580 10579 10578
10381 10385 10389 10394 10397 10401 10407 10414 10420 10425 10430 10435 10440 10446 10453 10459 10462 10463 10466 10472 10477 10483 10489 10493 10495 10497 10501 10505 10509 10514 10518 10523 10527 10530 10533 10536 10540 10544 10546 10549 10551 10552 10554 10557 10558 10560 10562 10564 10566 10568 10570 10572 10574 10577 10579 10580 10581 10582 10582 10582 10582 10583 10583 10583 10583 10583 10582 10582 10582 10582 10582 10581 10581 10580 10580 10579 10579 10578 10577 10576 10576 10576 10576 10575 10573 10572
10383 10386 10390 10395 10399 10403 10410 10417 10423 10429 10433 10437 10441 10446 10452 10458 10460 10460 10464 10471 10477 10482 10487 10490 10492 10495 10499 10503 10508 10513 10517 10522 10526 10528 10531 10535 10539 10542 10545 10547 10548 10550 10552 10554 10554 10556 10558 10560 10562 10564 10566 10567 10570 10571 10573 10574 10575 10576 10577 10577 10577 10577 10577 10577 10577 10577 10577 10577 10577 10577 10577 10576 10576 10575 10575 10574 10574 10573 10572 10571 10571 10571 10570 10570 10569 10567
10385 10388 10391 10395 10400 10406 10413 10418 10423 10427 10432 10436 10440 10445 10449 10451 10453 10456 10462 10470 10476 10480 10484 10486 10489 10492 10497 10502 10507 10512 10516 10519 10523 10526 10529 10534 10540 10546 10548 10548 10548 10549 10550 10550 10551 10552 10554 10555 10557 10559 10560 10562 10564 10566 10567 10568 10569 10570 10571 10571 10570 10571 10571 10571 10571 10571 10571 10571 10571 10571 10571 10571 10571 10570 10569 10569 10568 10567 10566 10566 10565 10565 10565 10564 10563 10562
10385 10388 10392 10396 10401 10407 10413 10418 10421 10425 10429 10433 10438 10443 10446 10447 10450 10454 10461 10469 10475 10480 10482 10484 10486 10489 10494 10499 10505 10509 10513 10517 10521 10524 10529 10536 10546 10553 10554 10549 10546 10546 10546 10546 10546 10548 10549 10550 10552 10553 10555 10557 10558 10559 10560 10561 10563 10564 10564 10564 10564 10565 10565 10565 10565 10565 10564 10564 10565 10565 10565 10565 10565 10564 10563 10563 10562 10561 10561 10560 10560 10559 10559 10558 10557 10556
10383 10387 10391 10396 10400 10405 10410 10414 10418 10422 10427 10431 10435 10440 10443 10445 10449 10453 10459 10467 10474 10478 10481 10482 10483 10486 10490 10495 10501 10506 10510 10515 10519 10523 10528 10536 10544 10550 10551 10548 10542 10538 10538 10539 10541 10542 10543 10544 10545 10547 10549 10550 10552 10553 10554 10555 10556 10557 10558 10558 10559 10559 10559 10559 10559 10559 10558 10558 10558 10558 10558 10558 10558 10557 10557 10557 10556 10555 10555 10554 10553 10553 10552 10551 10550 10548
10382 10385 10390 10394 10398 10402 10406 10410 10414 10419 10424 10429 10433 10437 10441 10444 10448 10452 10456 10462 10468 10473 10476 10478 10480 10483 10487 10492 10498 10503 10508 10514 10518 10522 10527 10532 10537 10540 10542 10542 10538 10532 10530 10531 10533 10534 10535 10537 10539 10540 10542 10544 10546 10547 10548 10549 10550 10552 10552 10552 10553 10553 10552 10552 10553 10553 10552 10552 10551 10551 10551 10551 10551 10551 10550 10550 10550 10550 10549 10548 10547 10547 10546 10544 10543 10541
10380 10384 10389 10392 10396 10400 10404 10408 10412 10416 10421 10426 10431 10435 10438 10442 10446 10449 10453 10457 10463 10468 10473 10475 10478 10481 10485 10489 10495 10499 10504 10509 10514 10518 10523 10527 10530 10534 10537 10537 10534 10529 10524 10523 10524 10526 10527 10530 10533 10535 10536 10539 10540 10541 10543 10544 10545 10545 10545 10545 10545 10546 10545 10545 10546 10546 10545 10545 10544 10543 10544 10544 10545 10544 10544 10544 10544 10543 10543 10542 10540 10540 10539 10537 10535 10533